TimeCST,TemperatureF,Dew PointF,Humidity,Sea Level PressureIn,VisibilityMPH,Wind Direction,Wind SpeedMPH,Gust SpeedMPH,PrecipitationIn,Events,Conditions,WindDirDegrees,DateUTC
12:53 AM,36.0,35.1,97,29.86,1.2,West,3.5,-,N/A,,Overcast,260,2012-12-02 06:53:00
1:53 AM,36.0,34.0,93,29.88,1.8,WSW,4.6,-,N/A,,Overcast,250,2012-12-02 07:53:00
2:01 AM,35.6,33.8,93,29.85,2.0,West,3.5,-,N/A,,Overcast,260,2012-12-02 08:01:00
2:32 AM,35.6,35.6,100,29.85,1.5,WSW,3.5,-,N/A,,Overcast,250,2012-12-02 08:32:00
2:53 AM,35.1,34.0,96,29.89,1.5,WSW,3.5,-,N/A,,Overcast,250,2012-12-02 08:53:00
3:22 AM,35.6,35.6,100,29.86,2.0,Calm,Calm,-,N/A,,Overcast,0,2012-12-02 09:22:00
3:53 AM,35.1,34.0,96,29.91,2.5,West,4.6,-,N/A,,Overcast,260,2012-12-02 09:53:00
4:53 AM,35.1,34.0,96,29.92,2.5,West,3.5,-,N/A,,Overcast,260,2012-12-02 10:53:00
5:48 AM,35.6,33.8,93,29.92,3.0,West,3.5,-,N/A,,Overcast,280,2012-12-02 11:48:00
5:53 AM,36.0,34.0,93,29.94,3.0,WNW,3.5,-,N/A,,Overcast,290,2012-12-02 11:53:00
6:50 AM,35.6,33.8,93,29.93,2.5,SW,4.6,-,N/A,,Overcast,230,2012-12-02 12:50:00
6:53 AM,35.1,33.1,92,29.96,3.0,WSW,5.8,-,N/A,,Overcast,240,2012-12-02 12:53:00
7:53 AM,35.1,34.0,96,29.99,2.0,WSW,4.6,-,N/A,,Overcast,250,2012-12-02 13:53:00
8:53 AM,36.0,34.0,93,30.00,2.0,West,3.5,-,N/A,,Overcast,260,2012-12-02 14:53:00
9:53 AM,36.0,34.0,93,30.02,2.5,West,3.5,-,N/A,,Overcast,260,2012-12-02 15:53:00
10:05 AM,35.6,33.8,93,29.99,2.5,WSW,4.6,-,N/A,,Overcast,250,2012-12-02 16:05:00
10:28 AM,37.4,33.8,87,29.98,3.0,SW,3.5,-,N/A,,Overcast,220,2012-12-02 16:28:00
10:53 AM,37.0,34.0,89,30.01,3.0,SW,3.5,-,N/A,,Overcast,220,2012-12-02 16:53:00
11:53 AM,37.9,33.1,83,29.99,5.0,SSW,4.6,-,N/A,,Haze,200,2012-12-02 17:53:00
12:53 PM,37.9,33.1,83,29.98,5.0,SSW,4.6,-,N/A,,Haze,210,2012-12-02 18:53:00
1:53 PM,37.9,33.1,83,29.98,5.0,SSW,5.8,-,N/A,,Haze,210,2012-12-02 19:53:00
2:53 PM,37.9,34.0,86,29.98,4.0,Variable,4.6,-,N/A,,Overcast,0,2012-12-02 20:53:00
3:53 PM,37.0,34.0,89,30.00,4.0,SW,5.8,-,N/A,,Overcast,220,2012-12-02 21:53:00
4:10 PM,37.4,33.8,87,29.96,4.0,South,3.5,-,N/A,,Overcast,190,2012-12-02 22:10:00
4:53 PM,36.0,33.1,89,29.97,5.0,SSW,6.9,-,N/A,,Overcast,200,2012-12-02 22:53:00
5:53 PM,36.0,33.1,89,29.96,5.0,South,3.5,-,N/A,,Overcast,190,2012-12-02 23:53:00
6:53 PM,36.0,33.1,89,29.96,6.0,South,3.5,-,N/A,,Overcast,190,2012-12-03 00:53:00
7:49 PM,33.8,32.0,93,29.93,5.0,Calm,Calm,-,N/A,,Scattered Clouds,0,2012-12-03 01:49:00
7:53 PM,34.0,32.0,92,29.96,5.0,Calm,Calm,-,N/A,,Partly Cloudy,0,2012-12-03 01:53:00
8:53 PM,33.1,30.9,92,29.92,5.0,Calm,Calm,-,N/A,,Clear,0,2012-12-03 02:53:00
9:28 PM,30.2,28.4,93,29.87,1.8,Calm,Calm,-,N/A,,Clear,0,2012-12-03 03:28:00
9:41 PM,30.2,28.4,93,29.87,2.0,Calm,Calm,-,N/A,,Clear,0,2012-12-03 03:41:00
9:53 PM,30.0,28.9,96,29.89,1.2,Calm,Calm,-,N/A,,Clear,0,2012-12-03 03:53:00
10:22 PM,28.4,28.4,100,29.85,0.8,Calm,Calm,-,N/A,,Clear,0,2012-12-03 04:22:00
10:37 PM,30.2,28.4,93,29.85,0.5,Calm,Calm,-,N/A,Fog,Light Freezing Fog,0,2012-12-03 04:37:00
10:41 PM,30.2,28.4,93,29.85,0.2,Calm,Calm,-,N/A,Fog,Light Freezing Fog,0,2012-12-03 04:41:00
10:53 PM,30.0,28.9,96,29.88,0.5,Calm,Calm,-,N/A,Fog,Light Freezing Fog,0,2012-12-03 04:53:00
11:05 PM,30.2,28.4,93,29.85,1.0,Calm,Calm,-,N/A,,Clear,0,2012-12-03 05:05:00
11:09 PM,28.4,28.4,100,29.85,0.5,Calm,Calm,-,N/A,Fog,Light Freezing Fog,0,2012-12-03 05:09:00
11:19 PM,30.2,28.4,93,29.85,1.2,Calm,Calm,-,N/A,,Partly Cloudy,0,2012-12-03 05:19:00
11:30 PM,28.4,26.6,93,29.84,0.8,Calm,Calm,-,N/A,,Mist,0,2012-12-03 05:30:00
11:41 PM,30.2,28.4,93,29.85,1.5,Calm,Calm,-,N/A,,Partly Cloudy,0,2012-12-03 05:41:00
11:44 PM,30.2,28.4,93,29.85,3.0,Calm,Calm,-,N/A,,Partly Cloudy,0,2012-12-03 05:44:00
11:53 PM,30.0,28.9,96,29.88,5.0,Calm,Calm,-,N/A,,Partly Cloudy,0,2012-12-03 05:53:00